Regional Weather Roundup
Issued by NWS

Home | Current Version | Previous Version | Text Only | Print | Product List | Glossary Off
Versions: 1 2 3 4 5 6 7 8 9 10 11 12 13 14 15 16 17 18 19 20 21 22 23 24 25 26 27 28 29 30 31 32 33 34 35 36 37 38 39 40 41 42 43 44 45 46 47 48 49 50

104
ASUS44 KJAN 281410
RWRMS

MISSISSIPPI HOURLY WEATHER ROUNDUP
NATIONAL WEATHER SERVICE JACKSON MS
900 AM CDT MON JUL 28 2014

NOTE: "FAIR: INDICATES FEW OR NO CLOUDS BELOW 12,000 FEET WITH NO
SIGNIFICANT WEATHER AND/OR OBSTRUCTIONS TO VISIBILITY.

MSZ001>002-007>008-010>013-018>021-025>028-034>036-281500-
NORTHWEST MISSISSIPPI

CITY           SKY/WX    TMP DP  RH WIND       PRES   REMARKS
CLARKSDALE     FAIR      79  64  61 N10       30.09R
CLEVELAND      FAIR      78  71  78 N8        30.07S
GREENWOOD      PTSUNNY   79  71  76 N6        30.06R
GREENVILLE     PTSUNNY   81  68  64 N7        30.08R
GRENADA        FAIR      81  66  61 N5        30.06S
OLIVE BRANCH   SUNNY     75  63  64 N9        30.09
OXFORD         FAIR      75  63  64 N8        30.09R
TUNICA         SUNNY     77  63  61 N8        30.09R
$$

MSZ003>006-009-014>017-022>024-029>033-037>039-281500-
NORTHEAST MISSISSIPPI

CITY           SKY/WX    TMP DP  RH WIND       PRES   REMARKS
BELMONT        FAIR      76  65  68 N5        30.05R
COLUMBUS AFB   MOSUNNY   81  72  75 N12       30.02R
CORINTH        FAIR      75  63  64 N7        30.06R
GOLDN TRIANGLE MOSUNNY   82  73  74 N9        30.02R
STARKVILLE     FAIR      81  72  74 N7        30.03R
TUPELO         SUNNY     79  64  60 NE15      30.05R
$$

MSZ040-058-281500-
CENTRAL MISSISSIPPI

CITY           SKY/WX    TMP DP  RH WIND       PRES   REMARKS
JACKSON INTL   CLOUDY    82  75  79 W8        30.06S
JACKSON HAWKNS CLOUDY    81  74  79 W8        30.07S
MERIDIAN KEY   MOSUNNY   83  74  74 W10G17    30.03S
MERIDIAN NAS   PTSUNNY   83  74  74 W14       30.03R
RAYMOND        PTSUNNY   79  73  83 W9        30.07F
VICKSBURG      CLOUDY    78  76  93 W7        30.08R
$$

MSZ059>079-281500-
SOUTH MISSISSIPPI

CITY           SKY/WX    TMP DP  RH WIND       PRES   REMARKS
BROOKHAVEN     FAIR      81  77  89 W9        30.11S
COLUMBIA       FAIR      84  77  79 W8G15     30.07S HX  94
HATTIESBURG    SUNNY     85  76  74 W14G22    30.07R HX  94
MCCOMB         MOSUNNY   82  75  79 W8        30.10S
NATCHEZ        CLOUDY    79  75  89 W9        30.11S
PINE BELT      SUNNY     82  73  74 W9G16     30.08S
$$

MSZ080>082-281500-
COASTAL MISSISSIPPI

CITY           SKY/WX    TMP DP  RH WIND       PRES   REMARKS
BILOXI         SUNNY     85  76  73 VRB3      30.07R HX  94
PASCAGOULA     SUNNY     85  75  72 VRB7      30.06S HX  93
GULFPORT       SUNNY     87  75  67 NW12G21   30.06S HX  96
$$



USA.gov is the U.S. government's official web portal to all federal, state and local government web resources and services.